Location: Dunedin
(45.8670°S, 170.5000°E)
Time: 22:20:52
(UTC+13:00)

Cosmos 1606 - Pass Details

Date: 24 January 2019
Orbit: 506 x 528 km, 82.5° (Epoch: 20 February)

Event Time Altitude Azimuth Distance (km) Brightness Sun altitude
Exits shadow 23:25:34 35° 11° (N) 877 3.3 -17.2°
Maximum altitude 23:27:05 69° 83° (E) 582 2.7 -17.3°
Drops below altitude 10° 23:31:03 10° 166° (SSE) 1,811 6.0 -17.7°
Sets 23:33:14 0° 168° (SSE) 2,708 7.0 -17.9°
